FW7051 Weather Reports


Display with metric or nautical units.
time (UTC)temp
F
wind
direction
speed
MPH
gust
MPH
rain 1hr
in
rain 24hr
in
rain mn
in
humidity
%
barometer
mb
20260510225015 69 92 1.0 7.0 0.00 0.00 0.00 47 1019.9
20260510224531 69 0 1.0 6.0 0.00 0.00 0.00 48 1019.7
20260510224015 69 0 2.0 7.0 0.00 0.00 0.00 47 1019.8
20260510223520 69 94 0.0 7.0 0.00 0.00 0.00 49 1019.7
20260510223029 70 107 1.0 6.0 0.00 0.00 0.00 49 1019.7
20260510222517 70 107 1.0 8.0 0.00 0.00 0.00 46 1019.8
20260510222021 70 107 2.0 8.0 0.00 0.00 0.00 47 1019.9
20260510221539 70 0 1.0 6.0 0.00 0.00 0.00 51 1019.9
20260510221019 70 108 1.0 3.0 0.00 0.00 0.00 49 1020.0
20260510220516 70 0 0.0 4.0 0.00 0.00 0.00 52 1020.1
20260510220033 69 0 0.0 4.0 0.00 0.00 0.00 46 1020.2
20260510215515 69 0 1.0 4.0 0.00 0.00 0.00 44 1020.1
20260510215015 69 126 0.0 5.0 0.00 0.00 0.00 52 1020.2
20260510214536 70 126 1.0 5.0 0.00 0.00 0.00 47 1020.3
20260510214015 70 127 2.0 7.0 0.00 0.00 0.00 44 1020.1
20260510213520 70 129 2.0 7.0 0.00 0.00 0.00 45 1020.2
20260510213032 70 128 1.0 7.0 0.00 0.00 0.00 44 1020.1
20260510212516 70 128 1.0 5.0 0.00 0.00 0.00 51 1020.0
20260510212021 69 129 2.0 5.0 0.00 0.00 0.00 43 1020.1
20260510211530 69 355 1.0 4.0 0.00 0.00 0.00 45 1020.1
20260510211016 69 355 0.0 5.0 0.00 0.00 0.00 46 1020.1
20260510210515 70 355 1.0 5.0 0.00 0.00 0.00 42 1020.1
20260510210029 70 340 0.0 5.0 0.00 0.00 0.00 43 1020.2
20260510205515 71 338 0.0 6.0 0.00 0.00 0.00 42 1020.2
20260510205016 71 57 1.0 10.0 0.00 0.00 0.00 44 1020.1
20260510204532 71 55 3.0 10.0 0.00 0.00 0.00 40 1020.1
20260510204015 71 47 2.0 9.0 0.00 0.00 0.00 41 1020.2
20260510203517 71 42 2.0 7.0 0.00 0.00 0.00 39 1020.2
20260510203029 71 0 1.0 6.0 0.00 0.00 0.00 37 1020.0
20260510202514 71 67 1.0 6.0 0.00 0.00 0.00 39 1020.1
20260510202019 71 48 2.0 8.0 0.00 0.00 0.00 36 1020.0
20260510201528 71 34 2.0 8.0 0.00 0.00 0.00 39 1020.0
20260510201011 72 84 1.0 6.0 0.00 0.00 0.00 42 1019.9
20260510200515 71 84 2.0 8.0 0.00 0.00 0.00 42 1020.0
20260510200032 71 85 1.0 8.0 0.00 0.00 0.00 39 1019.9
20260510195514 71 74 1.0 11.0 0.00 0.00 0.00 45 1019.9
20260510195015 71 74 2.0 11.0 0.00 0.00 0.00 41 1019.9
20260510194542 71 61 3.0 9.0 0.00 0.00 0.00 43 1019.9
20260510194018 71 105 2.0 7.0 0.00 0.00 0.00 38 1020.0
20260510193515 71 55 1.0 8.0 0.00 0.00 0.00 38 1020.0
20260510193027 71 47 4.0 8.0 0.00 0.00 0.00 37 1020.0
20260510192512 71 60 2.0 5.0 0.00 0.00 0.00 39 1020.0
20260510192015 70 56 1.0 5.0 0.00 0.00 0.00 45 1020.0
20260510191531 70 55 1.0 9.0 0.00 0.00 0.00 38 1020.1
20260510191015 70 0 1.0 10.0 0.00 0.00 0.00 40 1020.0
20260510190514 71 52 3.0 10.0 0.00 0.00 0.00 39 1020.0
20260510190029 71 52 3.0 10.0 0.00 0.00 0.00 36 1020.0
20260510185514 71 53 1.0 11.0 0.00 0.00 0.00 43 1019.9
20260510185018 72 0 1.0 11.0 0.00 0.00 0.00 38 1019.9
20260510184531 72 67 2.0 9.0 0.00 0.00 0.00 41 1019.7
20260510184015 72 296 1.0 8.0 0.00 0.00 0.00 43 1019.6
20260510183514 72 309 2.0 8.0 0.00 0.00 0.00 41 1019.7
20260510183028 71 318 1.0 8.0 0.00 0.00 0.00 45 1019.6
20260510182513 72 69 1.0 5.0 0.00 0.00 0.00 42 1019.6
20260510182015 72 69 2.0 9.0 0.00 0.00 0.00 50 1019.5
20260510181528 72 71 3.0 9.0 0.00 0.00 0.00 44 1019.5
20260510181012 71 54 1.0 10.0 0.00 0.00 0.00 45 1019.6
20260510180515 71 55 2.0 10.0 0.00 0.00 0.00 45 1019.7
20260510180029 71 313 2.0 9.0 0.00 0.00 0.00 43 1019.7
20260510175514 71 21 2.0 8.0 0.00 0.00 0.00 47 1019.7
20260510175016 71 128 2.0 8.0 0.00 0.00 0.00 42 1019.6
20260510174530 71 96 2.0 8.0 0.00 0.00 0.00 41 1019.6
20260510174016 70 111 1.0 12.0 0.00 0.00 0.00 45 1019.7
20260510173514 70 119 3.0 12.0 0.00 0.00 0.00 44 1019.7
20260510173028 70 129 2.0 10.0 0.00 0.00 0.00 44 1019.6
20260510172525 70 105 3.0 7.0 0.00 0.00 0.00 46 1019.8
20260510172016 70 49 1.0 7.0 0.00 0.00 0.00 47 1019.8
20260510171533 70 47 3.0 7.0 0.00 0.00 0.00 43 1019.8
20260510171015 70 51 2.0 10.0 0.00 0.00 0.00 50 1019.7
20260510170517 69 60 2.0 11.0 0.00 0.00 0.00 46 1019.8
20260510170034 69 66 2.0 11.0 0.00 0.00 0.00 49 1019.8
20260510165513 70 35 3.0 11.0 0.00 0.00 0.00 44 1019.8
20260510165016 70 86 2.0 8.0 0.00 0.00 0.00 49 1019.8
20260510164531 70 76 2.0 5.0 0.00 0.00 0.00 49 1019.9
20260510164015 70 63 1.0 7.0 0.00 0.00 0.00 48 1019.9
20260510163517 69 63 2.0 7.0 0.00 0.00 0.00 52 1020.0
20260510163030 69 59 3.0 7.0 0.00 0.00 0.00 47 1019.9
20260510162516 69 37 2.0 9.0 0.00 0.00 0.00 48 1019.9
20260510162019 69 301 2.0 9.0 0.00 0.00 0.00 47 1019.9
20260510161529 70 15 1.0 4.0 0.00 0.00 0.00 51 1020.0
20260510161016 69 49 2.0 12.0 0.00 0.00 0.00 52 1019.9
20260510160516 69 42 1.0 12.0 0.00 0.00 0.00 48 1020.0
20260510160045 69 62 2.0 7.0 0.00 0.00 0.00 53 1020.0
20260510155525 69 59 2.0 5.0 0.00 0.00 0.00 51 1019.9
20260510155016 69 59 1.0 12.0 0.00 0.00 0.00 52 1019.8
20260510154528 68 0 1.0 12.0 0.00 0.00 0.00 61 1019.9
20260510154016 68 121 2.0 10.0 0.00 0.00 0.00 58 1019.8
20260510153518 68 61 2.0 10.0 0.00 0.00 0.00 59 1019.7
20260510153031 68 340 1.0 5.0 0.00 0.00 0.00 62 1019.7
20260510152520 67 338 2.0 6.0 0.00 0.00 0.00 57 1019.8
20260510152017 67 0 2.0 9.0 0.00 0.00 0.00 62 1019.6
20260510151535 67 321 1.0 9.0 0.00 0.00 0.00 62 1019.6
20260510151016 67 42 1.0 6.0 0.00 0.00 0.00 58 1019.6
20260510150516 67 42 1.0 6.0 0.00 0.00 0.00 65 1019.5
20260510150033 67 39 2.0 5.0 0.00 0.00 0.00 63 1019.6
20260510145519 66 0 0.0 5.0 0.00 0.00 0.00 64 1019.4
20260510145016 66 0 2.0 5.0 0.00 0.00 0.00 66 1019.1
20260510144541 65 38 2.0 6.0 0.00 0.00 0.00 68 1019.2
20260510144021 65 38 1.0 8.0 0.00 0.00 0.00 68 1019.1
20260510143516 64 44 1.0 8.0 0.00 0.00 0.00 68 1019.0
20260510143046 64 260 2.0 8.0 0.00 0.00 0.00 66 1019.1
20260510142517 64 153 1.0 6.0 0.00 0.00 0.00 69 1019.0
20260510142015 64 153 1.0 6.0 0.00 0.00 0.00 69 1018.9
20260510141537 63 159 2.0 9.0 0.00 0.00 0.00 73 1018.9
20260510141016 63 160 1.0 9.0 0.00 0.00 0.00 74 1019.0
20260510140515 63 186 1.0 5.0 0.00 0.00 0.00 75 1019.0
20260510140032 63 185 1.0 6.0 0.00 0.00 0.00 78 1018.9
20260510135521 62 0 2.0 6.0 0.00 0.00 0.00 77 1018.7
20260510135016 62 156 1.0 7.0 0.00 0.00 0.00 79 1018.6
20260510134535 61 155 2.0 7.0 0.00 0.00 0.00 80 1018.6
20260510134015 61 158 1.0 6.0 0.00 0.00 0.00 84 1018.6
20260510133516 60 161 0.0 2.0 0.00 0.00 0.00 85 1018.8
20260510133034 60 161 0.0 2.0 0.00 0.00 0.00 87 1018.7
20260510132516 59 161 0.0 4.0 0.00 0.00 0.00 87 1018.9
20260510132016 59 0 0.0 4.0 0.00 0.00 0.00 87 1018.7
20260510131531 59 0 1.0 4.0 0.00 0.00 0.00 87 1018.5
20260510131015 59 161 0.0 4.0 0.00 0.00 0.00 88 1018.5
20260510130516 59 161 0.0 4.0 0.00 0.00 0.00 89 1018.2
20260510130031 58 0 0.0 2.0 0.00 0.00 0.00 89 1018.2
20260510125515 58 161 0.0 4.0 0.00 0.00 0.00 90 1017.8
20260510125016 58 0 0.0 4.0 0.00 0.00 0.00 90 1017.8
20260510124529 58 161 0.0 2.0 0.00 0.00 0.00 91 1017.7
20260510124016 58 0 0.0 4.0 0.00 0.00 0.00 92 1017.6
20260510123516 58 0 1.0 4.0 0.00 0.00 0.00 93 1017.5
20260510123034 59 163 1.0 4.0 0.00 0.00 0.00 94 1017.6
20260510122516 59 163 0.0 5.0 0.00 0.00 0.00 94 1017.9
20260510122018 59 163 0.0 5.0 0.00 0.00 0.00 94 1017.9
20260510121528 59 163 0.0 5.0 0.00 0.00 0.00 95 1017.9
20260510121016 59 0 0.0 1.0 0.00 0.00 0.00 95 1017.7
20260510120519 59 0 0.0 1.0 0.00 0.00 0.00 95 1017.8
20260510120032 59 0 0.0 4.0 0.00 0.00 0.00 95 1017.5
20260510115519 59 0 0.0 4.0 0.00 0.00 0.00 95 1017.3
20260510115018 59 163 0.0 1.0 0.00 0.00 0.00 95 1017.0
20260510114530 59 0 0.0 0.0 0.00 0.00 0.00 95 1017.0
20260510114016 59 0 0.0 2.0 0.00 0.00 0.00 95 1016.8
20260510113515 59 0 0.0 2.0 0.00 0.00 0.00 95 1016.9
20260510113031 59 163 0.0 2.0 0.00 0.00 0.00 95 1016.8
20260510112516 59 163 0.0 2.0 0.00 0.00 0.00 95 1016.6
20260510112016 59 163 0.0 2.0 0.00 0.00 0.00 95 1016.7
20260510111535 58 0 0.0 1.0 0.00 0.00 0.00 94 1016.5
20260510111016 58 0 0.0 1.0 0.00 0.00 0.00 94 1016.4
20260510110516 58 0 0.0 1.0 0.00 0.00 0.00 94 1016.2
20260510110029 58 0 0.0 2.0 0.00 0.00 0.00 94 1016.2
20260510105516 58 0 0.0 2.0 0.00 0.00 0.00 94 1016.1
20260510105016 58 0 0.0 1.0 0.00 0.00 0.00 94 1015.8
20260510104535 58 163 0.0 1.0 0.00 0.00 0.00 94 1016.0
20260510104015 58 0 0.0 1.0 0.00 0.00 0.00 93 1015.9
20260510103515 58 0 0.0 0.0 0.00 0.00 0.00 93 1015.6
20260510103033 58 0 0.0 1.0 0.00 0.00 0.00 93 1015.4
20260510102516 58 0 0.0 1.0 0.00 0.00 0.00 93 1015.3
20260510102018 59 0 0.0 1.0 0.00 0.00 0.00 93 1015.2
20260510101533 59 0 0.0 0.0 0.00 0.00 0.00 94 1015.3
20260510101015 59 0 0.0 0.0 0.00 0.00 0.00 94 1015.2
20260510100515 59 0 0.0 0.0 0.00 0.00 0.00 94 1015.2
20260510100032 59 0 0.0 2.0 0.00 0.00 0.00 94 1015.1
20260510095515 59 0 0.0 2.0 0.00 0.00 0.00 94 1015.0
20260510095016 60 0 0.0 2.0 0.00 0.00 0.00 94 1015.0
20260510094530 60 163 0.0 2.0 0.00 0.00 0.00 94 1014.7
20260510094016 60 0 0.0 2.0 0.00 0.00 0.00 94 1014.6
20260510093516 60 0 0.0 2.0 0.00 0.00 0.00 94 1014.6
20260510093028 60 0 0.0 0.0 0.00 0.00 0.00 94 1014.9
20260510092516 60 0 0.0 1.0 0.00 0.00 0.00 94 1015.0
20260510092016 60 0 0.0 1.0 0.00 0.00 0.00 93 1015.0
20260510091528 60 0 0.0 1.0 0.00 0.00 0.00 93 1015.0
20260510091015 60 0 0.0 1.0 0.00 0.00 0.00 93 1015.0
20260510090515 60 0 0.0 0.0 0.00 0.00 0.00 93 1014.8
20260510090030 60 0 0.0 1.0 0.00 0.00 0.00 93 1014.7
20260510085516 60 0 0.0 1.0 0.00 0.00 0.00 93 1014.8
20260510085017 60 0 0.0 0.0 0.00 0.00 0.00 93 1014.6
20260510084533 60 0 0.0 1.0 0.00 0.00 0.00 93 1014.3
20260510084015 60 0 0.0 1.0 0.00 0.00 0.00 93 1014.4
20260510083518 60 0 0.0 1.0 0.00 0.00 0.00 93 1014.4
20260510083038 60 0 0.0 1.0 0.00 0.00 0.00 92 1014.3
20260510082515 60 0 0.0 1.0 0.00 0.00 0.00 93 1014.2
20260510082015 60 0 0.0 0.0 0.00 0.00 0.00 93 1014.0
20260510081540 60 0 0.0 0.0 0.00 0.00 0.00 92 1013.8
20260510081016 60 0 0.0 1.0 0.00 0.00 0.00 92 1013.8
20260510080516 60 0 0.0 1.0 0.00 0.00 0.00 92 1013.8
20260510080030 60 163 0.0 1.0 0.00 0.00 0.00 92 1013.6
20260510075515 60 0 0.0 1.0 0.00 0.00 0.00 92 1013.6
20260510075015 61 0 0.0 2.0 0.00 0.00 0.00 92 1013.6
20260510074531 61 0 0.0 2.0 0.00 0.00 0.00 92 1013.8
20260510074019 61 163 0.0 2.0 0.00 0.00 0.00 91 1013.5
20260510073518 61 0 0.0 2.0 0.00 0.00 0.00 91 1013.3
20260510073044 61 0 0.0 2.0 0.00 0.00 0.00 91 1013.5
20260510072522 61 163 0.0 2.0 0.00 0.00 0.00 91 1013.7
20260510072012 61 0 0.0 2.0 0.00 0.00 0.00 91 1013.6
20260510071531 61 163 0.0 2.0 0.00 0.00 0.00 91 1013.7
20260510071015 61 163 0.0 2.0 0.00 0.00 0.00 90 1013.7
20260510070516 61 0 0.0 0.0 0.00 0.00 0.00 90 1013.6
20260510070028 61 0 0.0 0.0 0.00 0.00 0.00 90 1013.6
20260510065516 62 0 0.0 0.0 0.00 0.07 0.00 89 1013.5
20260510065016 62 0 0.0 0.0 0.00 0.07 0.00 89 1013.8
20260510064542 62 0 0.0 0.0 0.00 0.07 0.00 89 1013.8
20260510064015 62 0 0.0 0.0 0.00 0.07 0.00 89 1013.8
20260510063515 62 0 0.0 0.0 0.00 0.07 0.00 88 1013.9
20260510063040 62 0 0.0 0.0 0.00 0.07 0.00 88 1014.0
20260510062515 63 0 0.0 0.0 0.00 0.07 0.00 87 1014.1
20260510062020 63 0 0.0 0.0 0.00 0.07 0.00 87 1013.8
20260510061536 63 0 0.0 0.0 0.00 0.07 0.00 87 1013.9
20260510061015 63 0 0.0 0.0 0.00 0.07 0.00 87 1014.0
20260510060515 63 0 0.0 2.0 0.00 0.07 0.00 87 1014.0
20260510060040 63 0 0.0 2.0 0.00 0.07 0.00 87 1014.0
20260510055514 63 0 0.0 2.0 0.00 0.35 0.00 87 1014.0
20260510055018 63 0 0.0 2.0 0.00 0.35 0.00 86 1014.1
20260510054530 62 0 0.0 4.0 0.00 0.35 0.00 87 1013.9
20260510054017 62 0 0.0 4.0 0.00 0.35 0.00 87 1014.0
20260510053515 62 0 0.0 2.0 0.00 0.35 0.00 87 1013.8
20260510053041 62 0 0.0 2.0 0.00 0.35 0.00 87 1014.0
20260510052512 62 0 0.0 2.0 0.00 0.35 0.00 87 1013.8
20260510052017 61 0 0.0 2.0 0.00 0.35 0.00 87 1013.8
20260510051531 61 163 0.0 5.0 0.00 0.35 0.00 88 1013.6
20260510051019 61 0 0.0 5.0 0.00 0.35 0.00 89 1013.7
20260510050517 60 163 0.0 6.0 0.00 0.35 0.00 90 1013.6
20260510050029 59 162 1.0 6.0 0.00 0.35 0.00 90 1013.6
20260510045515 59 0 0.0 6.0 0.00 0.78 0.35 92 1013.2
20260510045015 58 168 2.0 6.0 0.00 0.78 0.35 92 1012.9
20260510044543 58 0 0.0 2.0 0.00 0.78 0.35 92 1012.8
20260510044012 58 165 0.0 2.0 0.00 0.78 0.35 92 1012.8
20260510043516 58 0 0.0 0.0 0.00 0.78 0.35 91 1012.0
20260510043036 58 0 0.0 0.0 0.00 0.78 0.35 91 1011.8
20260510042515 58 0 0.0 0.0 0.00 0.78 0.35 91 1011.8
20260510042013 58 0 0.0 0.0 0.00 0.78 0.35 90 1011.7
20260510041534 58 0 0.0 0.0 0.00 0.78 0.35 90 1011.8
20260510041015 58 0 0.0 0.0 0.00 0.78 0.35 90 1011.7
20260510040519 58 0 0.0 0.0 0.00 0.78 0.35 89 1011.7
20260510040040 58 0 0.0 0.0 0.00 0.78 0.35 89 1011.6
20260510035515 58 0 0.0 0.0 0.00 0.78 0.35 89 1011.7
20260510035018 58 0 0.0 0.0 0.00 0.78 0.35 89 1011.7
20260510034529 58 0 0.0 0.0 0.00 0.78 0.35 89 1011.7
20260510034015 58 0 0.0 0.0 0.00 0.78 0.35 88 1011.6
20260510033515 58 0 0.0 0.0 0.00 0.78 0.35 88 1011.5
20260510033047 58 0 0.0 3.0 0.00 0.78 0.35 88 1011.5
20260510032514 59 0 0.0 3.0 0.00 0.78 0.35 87 1011.6
20260510032023 59 360 0.0 2.0 0.00 0.78 0.35 86 1011.7
20260510031534 59 0 0.0 0.0 0.00 0.78 0.35 86 1011.4
20260510031014 60 0 0.0 0.0 0.00 0.78 0.35 86 1011.3
20260510030524 60 0 0.0 0.0 0.00 0.78 0.35 85 1011.3
20260510030042 60 0 0.0 0.0 0.00 0.78 0.35 85 1011.2
20260510025515 60 0 0.0 0.0 0.00 0.82 0.35 85 1011.2
20260510025018 60 0 0.0 0.0 0.00 0.82 0.35 85 1011.2
20260510024532 61 0 0.0 0.0 0.00 0.82 0.35 84 1011.1
20260510024015 61 0 0.0 0.0 0.00 0.82 0.35 84 1011.0
20260510023516 61 0 0.0 0.0 0.00 0.82 0.35 83 1010.9
20260510023030 62 0 0.0 0.0 0.00 0.82 0.35 83 1010.8
20260510022515 62 0 0.0 0.0 0.00 0.82 0.35 82 1010.8
20260510022015 62 0 0.0 0.0 0.00 0.82 0.35 82 1010.8
20260510021532 63 0 0.0 0.0 0.00 0.82 0.35 81 1010.6
20260510021014 63 0 0.0 0.0 0.00 0.82 0.35 81 1010.5
20260510020515 63 0 0.0 0.0 0.00 0.82 0.35 80 1010.5
20260510020033 64 0 0.0 0.0 0.00 0.82 0.35 80 1010.5
20260510015516 64 0 0.0 0.0 0.00 0.85 0.35 79 1010.4
20260510015024 65 0 0.0 0.0 0.00 0.85 0.35 78 1010.4
20260510014538 65 0 0.0 2.0 0.00 0.85 0.35 77 1010.3
20260510014016 66 0 0.0 2.0 0.00 0.85 0.35 77 1010.2
20260510013515 66 0 0.0 0.0 0.00 0.85 0.35 77 1010.2
20260510013028 67 0 0.0 0.0 0.00 0.85 0.35 75 1010.2
20260510012519 67 0 0.0 1.0 0.00 0.85 0.35 74 1010.1
20260510012015 68 0 0.0 1.0 0.00 0.85 0.35 74 1009.9
20260510011527 69 0 0.0 0.0 0.00 0.85 0.35 73 1010.0
20260510011011 69 0 0.0 0.0 0.00 0.85 0.35 73 1009.9
20260510010514 70 0 0.0 0.0 0.00 0.85 0.35 71 1009.9
20260510010030 71 0 0.0 0.0 0.00 0.85 0.35 71 1009.8
20260510005515 71 0 0.0 0.0 0.00 0.85 0.35 70 1009.8
20260510005015 72 0 0.0 0.0 0.00 0.85 0.35 69 1009.6
20260510004534 73 0 0.0 0.0 0.00 0.85 0.35 69 1009.6
20260510004016 74 0 0.0 0.0 0.00 0.85 0.35 67 1009.6
20260510003515 74 0 0.0 0.0 0.00 0.85 0.35 66 1009.5
20260510003028 75 0 0.0 0.0 0.00 0.85 0.35 66 1009.5
20260510002515 75 0 0.0 0.0 0.00 0.85 0.35 66 1009.4
20260510002016 76 0 0.0 0.0 0.00 0.85 0.35 65 1009.4
20260510001530 76 0 0.0 0.0 0.00 0.85 0.35 63 1009.3
20260510001015 77 0 0.0 0.0 0.00 0.85 0.35 61 1009.4
20260510000515 77 0 0.0 0.0 0.00 0.85 0.35 59 1009.4
20260510000028 77 0 0.0 0.0 0.00 0.85 0.35 55 1009.3
20260509235514 77 0 0.0 0.0 0.00 0.85 0.35 55 1009.3
20260509235015 77 0 0.0 0.0 0.00 0.85 0.35 54 1009.3
20260509234542 77 0 0.0 1.0 0.00 0.85 0.35 50 1009.3
20260509234016 78 0 0.0 1.0 0.00 0.85 0.35 50 1009.3
20260509233515 78 0 0.0 2.0 0.00 0.85 0.35 49 1009.3
20260509233029 78 0 0.0 2.0 0.00 0.85 0.35 48 1009.3
20260509232516 78 246 0.0 2.0 0.00 0.85 0.35 48 1009.3
20260509232014 78 0 0.0 2.0 0.00 0.85 0.35 51 1009.2
20260509231528 78 0 0.0 2.0 0.00 0.85 0.35 48 1009.2
20260509231017 79 0 0.0 2.0 0.00 0.85 0.35 47 1009.2
20260509230515 79 0 0.0 2.0 0.00 0.85 0.35 45 1009.2
20260509230038 79 0 0.0 3.0 0.00 0.85 0.35 46 1009.2
20260509225516 80 246 0.0 3.0 0.00 0.85 0.35 50 1009.2